Location: Voyageurs National Park
(48.5020°N, 92.9292°W)
Time: 11:59:52
(UTC-05:00)

PCSat - Visible Passes

Search period start: 23 July 2016 00:00
Search period end: 02 August 2016 00:00
Orbit: 786 x 795 km, 67.0° (Epoch: 23 July)

Date Brightness Start Highest point End Pass type
(mag) Time Alt. Az. Time Alt. Az. Time Alt. Az.
23 Jul 12.7 00:16:02 10° NW 00:19:04 15° NNW 00:22:05 10° NNE visible
23 Jul 13.1 02:03:40 10° N 02:04:58 11° N 02:06:17 10° NNE visible
23 Jul 12.5 03:46:35 10° NNW 03:50:37 20° NNE 03:54:37 10° E visible
23 Jul 10.5 21:57:55 10° SW 22:03:13 53° NW 22:08:34 10° NNE visible
23 Jul 12.6 23:44:25 10° WNW 23:47:53 17° NNW 23:51:22 10° NNE visible
24 Jul 13.1 01:32:36 10° N 01:33:42 11° N 01:34:49 10° NNE visible
24 Jul 12.6 03:15:52 10° NNW 03:19:29 18° NNE 03:23:05 10° ENE visible
24 Jul 10.1 21:26:55 10° SW 21:32:19 68° NW 21:37:47 10° NNE visible
24 Jul 12.5 23:12:52 10° WNW 23:16:44 19° NNW 23:20:39 10° NNE visible
25 Jul 13.1 01:01:14 10° NNW 01:02:27 11° N 01:03:39 10° N visible
25 Jul 12.8 02:45:09 10° NNW 02:48:19 15° NNE 02:51:29 10° ENE visible
25 Jul 10.9 04:27:54 10° NNW 04:33:09 45° NE 04:38:20 10° ESE visible
25 Jul 12.3 22:41:23 10° W 22:45:39 23° NNW 22:49:55 10° NNE visible
26 Jul 13.0 00:29:37 10° NNW 00:31:10 11° N 00:32:44 10° N visible
26 Jul 12.8 02:14:25 10° N 02:17:08 14° NNE 02:19:50 10° NE visible
26 Jul 11.3 03:57:08 10° NNW 04:02:10 36° NE 04:07:10 10° ESE visible
26 Jul 12.0 22:09:58 10° W 22:14:34 27° NW 22:19:12 10° NNE visible
26 Jul 12.9 23:57:56 10° NW 23:59:55 12° NNW 00:01:55 10° N visible
27 Jul 12.8 01:43:41 10° N 01:45:54 12° NNE 01:48:08 10° NE visible
27 Jul 11.7 03:26:24 10° NNW 03:31:10 30° NE 03:35:54 10° E visible
27 Jul 11.7 21:38:40 10° WSW 21:43:32 33° NW 21:48:27 10° NNE visible
27 Jul 12.8 23:26:14 10° NW 23:28:41 13° NNW 23:31:10 10° N visible
28 Jul 12.9 01:12:54 10° N 01:14:40 11° N 01:16:25 10° NNE visible
28 Jul 11.9 02:55:39 10° NNW 03:00:07 25° NE 03:04:33 10° E visible
28 Jul 9.6 04:38:42 10° NW 04:44:10 83° WSW 04:49:35 10° SSE visible
28 Jul 12.7 22:54:33 10° NW 22:57:29 14° NNW 23:00:26 10° NNE visible
29 Jul 12.9 00:42:03 10° N 00:43:24 11° N 00:44:46 10° NNE visible
29 Jul 12.2 02:24:55 10° NNW 02:29:01 21° NNE 02:33:06 10° E visible
29 Jul 9.8 04:07:51 10° NNW 04:13:20 77° NE 04:18:44 10° SE visible
29 Jul 12.5 22:22:55 10° WNW 22:26:18 16° NNW 22:29:42 10° NNE visible
30 Jul 12.9 00:11:00 10° N 00:12:09 11° N 00:13:16 10° NNE visible
30 Jul 12.3 01:54:12 10° NNW 01:57:54 18° NNE 02:01:35 10° ENE visible
30 Jul 10.2 03:37:03 10° NNW 03:42:27 60° NE 03:47:47 10° SE visible
30 Jul 12.4 21:51:20 10° WNW 21:55:10 19° NNW 21:58:59 10° NNE visible
30 Jul 12.8 23:39:42 10° NNW 23:40:52 11° N 23:42:03 10° N visible
31 Jul 12.4 01:23:29 10° NNW 01:26:44 16° NNE 01:29:59 10° ENE visible
31 Jul 10.6 03:06:15 10° NNW 03:11:31 47° NE 03:16:44 10° ESE visible
31 Jul 10.2 04:49:56 10° NW 04:54:48 34° WSW 04:59:37 10° S visible
31 Jul 12.3 21:19:51 10° W 21:24:03 22° NNW 21:28:15 10° NNE visible
31 Jul 12.8 23:08:08 10° NNW 23:09:36 11° N 23:11:05 10° N visible
01 Aug 12.4 00:52:46 10° NNW 00:55:33 14° NNE 00:58:20 10° NE visible
01 Aug 11.0 02:35:29 10° NNW 02:40:33 38° NE 02:45:35 10° ESE visible
01 Aug 9.8 04:18:55 10° NW 04:24:05 45° WSW 04:29:11 10° S visible
01 Aug 12.6 22:36:27 10° NNW 22:38:21 12° NNW 22:40:16 10° N visible
